Haleyville, AL

2:47 PM CDT on July 20, 2017 (GMT -0500)
Haleyville

Weather History for K1M4 - February, 2013

Change the Weather History Date:

Saturday, February 23, 2013

  Actual Average (KJFX) Record (KJFX)
Temperature  
Mean Temperature 45 °F -  
Max Temperature 54 °F 58 °F 80 °F (1962)
Min Temperature 36 °F 34 °F 13 °F (1964)
Degree Days  
Heating Degree Days 20    
Moisture  
Dew Point 43 °F    
Average Humidity 92    
Maximum Humidity 100    
Minimum Humidity 51    
Precipitation  
Precipitation 0.01 in - - ()
Sea Level Pressure  
Sea Level Pressure 30.00 in    
Wind  
Wind Speed 4 mph (North)    
Max Wind Speed 10 mph    
Max Gust Speed -    
Visibility 5 miles    
Events Fog , Rain    
Averages and records for this station are not official NWS values.
T = Trace of Precipitation, MM = Missing Value Source: NWS Daily Summary

Daily Weather History Graph

Daily Weather History Graph

Search for Another Location

Airport or City:

Trip Planner

Search our weather history database for the weather conditions in past years. The results will help you decide how hot, cold, wet, or windy it might be!

Date:

Astronomy

Feb. 23, 2013 Rise Set
Actual Time 6:26 AM CST 5:41 PM CST
Civil Twilight 6:00 AM CST 6:06 PM CST
Nautical Twilight 5:31 AM CST 6:36 PM CST
Astronomical Twilight 5:02 AM CST 7:05 PM CST
Moon 3:54 PM CST (2/23) 4:45 AM CST (2/23)
Length of Visible Light 12h 06m
Length of Day
11h 15m
Waxing Gibbous, 95% of the Moon is Illuminated
Feb 23
Waxing Gibbous
Feb 25
Full
Mar 4
Last Quarter
Mar 11
New
Mar 19
First Quarter

Hourly Weather History & Observations

Time (CST) Temp. Windchill Dew Point Humidity Pressure Visibility Wind Dir Wind Speed Gust Speed Precip Events Conditions
12:06 AM 48.2 °F - 48.2 °F 100% 30.01 in 1.2 mi Calm Calm - 0.00 in Rain Light Rain
12:08 AM 48.2 °F - 48.2 °F 100% 30.00 in 1.0 mi Calm Calm - 0.00 in Rain Light Rain
12:12 AM 48.2 °F - 48.2 °F 100% 30.00 in 0.5 mi North 3.5 mph - 0.00 in Fog , Rain Light Rain
12:21 AM 48.2 °F - 48.2 °F 100% 30.00 in 1.0 mi NNE 3.5 mph - 0.01 in   Overcast
12:30 AM 48.2 °F - 48.2 °F 100% 30.01 in 1.2 mi Calm Calm - 0.01 in   Overcast
12:37 AM 48.2 °F - 48.2 °F 100% 30.01 in 1.5 mi Calm Calm - 0.01 in   Overcast
12:44 AM 48.2 °F - 48.2 °F 100% 30.01 in 1.5 mi Calm Calm - 0.01 in   Overcast
12:56 AM 48.9 °F - 48.9 °F 100% 30.04 in 1.8 mi Variable 3.5 mph - 0.01 in Rain Light Rain
1:03 AM 48.2 °F - 48.2 °F 100% 30.01 in 3.0 mi North 4.6 mph - 0.00 in Rain Light Rain
1:21 AM 48.2 °F - 48.2 °F 100% 29.99 in 2.5 mi North 8.1 mph - 0.00 in   Overcast
1:28 AM 48.2 °F - 48.2 °F 100% 30.00 in 4.0 mi NNW 8.1 mph - 0.00 in   Overcast
1:56 AM 47.8 °F - 47.8 °F 100% 30.03 in 3.0 mi NNW 6.9 mph - 0.00 in   Overcast
2:09 AM 48.2 °F - 48.2 °F 100% 29.99 in 1.8 mi North 5.8 mph - N/A   Overcast
2:18 AM 48.2 °F - 48.2 °F 100% 29.99 in 0.5 mi North 5.8 mph - N/A Fog Fog
2:38 AM 46.4 °F 42.9 °F 46.4 °F 100% 29.99 in 0.2 mi North 6.9 mph - N/A Fog Fog
2:47 AM 46.4 °F 41.5 °F 46.4 °F 100% 29.98 in 0.5 mi North 10.4 mph - N/A Fog Fog
2:56 AM 45.9 °F 40.8 °F 45.9 °F 100% 30.01 in 0.8 mi North 10.4 mph - N/A   Overcast
3:07 AM 44.6 °F 40.2 °F 44.6 °F 100% 29.98 in 1.2 mi North 8.1 mph - N/A   Overcast
3:14 AM 44.6 °F 40.7 °F 44.6 °F 100% 29.98 in 2.0 mi North 6.9 mph - N/A   Overcast
3:56 AM 43.0 °F 37.2 °F 43.0 °F 100% 30.01 in 2.5 mi North 10.4 mph - N/A   Overcast
4:20 AM 42.8 °F 37.5 °F 42.8 °F 100% 29.98 in 1.8 mi North 9.2 mph - N/A   Overcast
4:56 AM 41.9 °F 37.5 °F 41.9 °F 100% 30.02 in 1.2 mi North 6.9 mph - N/A   Overcast
5:11 AM 42.8 °F 39.3 °F 42.8 °F 100% 29.99 in 1.0 mi North 5.8 mph - N/A   Overcast
5:47 AM 42.8 °F 40.1 °F 42.8 °F 100% 29.98 in 1.2 mi NE 4.6 mph - N/A   Overcast
5:56 AM 41.9 °F 38.2 °F 41.9 °F 100% 30.02 in 1.0 mi NNE 5.8 mph - N/A   Overcast
6:03 AM 42.8 °F 40.1 °F 42.8 °F 100% 29.98 in 1.5 mi NNE 4.6 mph - N/A   Overcast
6:37 AM 41.0 °F 37.1 °F 41.0 °F 100% 29.99 in 2.0 mi North 5.8 mph - N/A   Overcast
6:56 AM 41.0 °F 37.1 °F 41.0 °F 100% 30.03 in 3.0 mi North 5.8 mph - N/A   Overcast
7:14 AM 39.2 °F 34.2 °F 39.2 °F 100% 29.99 in 6.0 mi North 6.9 mph - N/A   Overcast
7:56 AM 39.9 °F 36.7 °F 39.9 °F 100% 30.02 in 2.5 mi NE 4.6 mph - N/A   Overcast
8:21 AM 41.0 °F 39.0 °F 41.0 °F 100% 29.99 in 3.0 mi Variable 3.5 mph - N/A   Overcast
8:56 AM 41.0 °F 37.1 °F 39.9 °F 96% 30.02 in 5.0 mi North 5.8 mph - N/A   Overcast
9:33 AM 42.8 °F 39.3 °F 41.0 °F 93% 29.98 in 6.0 mi ENE 5.8 mph - N/A   Overcast
9:56 AM 43.0 °F 39.5 °F 41.0 °F 93% 30.03 in 7.0 mi ENE 5.8 mph - N/A   Overcast
10:36 AM 44.6 °F - 41.0 °F 87% 30.01 in 9.0 mi Calm Calm - N/A   Overcast
10:56 AM 45.0 °F 43.5 °F 41.0 °F 86% 30.04 in 8.0 mi Variable 3.5 mph - N/A   Overcast
11:44 AM 46.4 °F - 42.8 °F 87% 29.99 in 10.0 mi Calm Calm - N/A   Overcast
11:56 AM 46.9 °F - 41.9 °F 83% 30.02 in 10.0 mi Calm Calm - N/A   Overcast
12:18 PM 48.2 °F - 42.8 °F 82% 29.98 in 10.0 mi Calm Calm - N/A   Partly Cloudy
12:56 PM 50.0 °F - 43.0 °F 77% 30.00 in 10.0 mi Variable 4.6 mph - N/A   Clear
1:56 PM 52.9 °F - 43.0 °F 69% 29.99 in 10.0 mi Variable 4.6 mph - N/A   Clear
2:56 PM 54.9 °F - 43.0 °F 64% 29.97 in 10.0 mi Calm Calm - N/A   Clear
3:56 PM 54.9 °F - 38.8 °F 55% 29.96 in 10.0 mi NNW 5.8 mph - N/A   Clear
4:56 PM 54.9 °F - 36.9 °F 51% 29.96 in 10.0 mi NNW 6.9 mph - N/A   Clear
5:56 PM 48.9 °F - 36.9 °F 63% 29.97 in 10.0 mi NNW 3.5 mph - N/A   Clear
6:56 PM 45.9 °F 42.9 °F 36.0 °F 68% 30.01 in 10.0 mi NW 5.8 mph - N/A   Clear
7:56 PM 39.9 °F - 36.9 °F 89% 30.02 in 10.0 mi Calm Calm - N/A   Clear
8:56 PM 38.8 °F 35.4 °F 34.9 °F 86% 30.02 in 10.0 mi North 4.6 mph - N/A   Clear
10:56 PM 36.9 °F 32.2 °F 32.0 °F 83% 30.03 in 10.0 mi North 5.8 mph - N/A   Clear
11:56 PM 36.9 °F 31.4 °F 30.0 °F 76% 30.02 in 10.0 mi North 6.9 mph - N/A   Clear